Location: Torre de� Picenardi
(45.1333°N, 10.2833°E)
Time: 14:32:15
(UTC+00:00)

Daily predictions for brighter satellites

Satellite Brightness Start Highest point End
(mag) Time Altitude Azimuth Time Altitude Azimuth Time Altitude Azimuth
DELTA 2 R/B (1) 4.3 19:02:33 10° W 19:07:44 40° SSW 19:12:52 10° SE
Cosmos 1503 Rocket 4.4 19:03:25 10° S 19:08:15 43° ESE 19:13:10 10° NNE
Cosmos 2221 3.8 19:06:50 10° SSW 19:10:59 45° WNW 19:15:11 10° N
Cosmos 1743 Rocket 3.8 19:06:41 10° NNW 19:11:02 73° W 19:15:23 10° S
Cosmos 1844 3.7 19:09:14 10° SSW 19:14:57 77° ESE 19:20:38 10° NNE
BREEZE-M DEB (TANK) 3.5 19:13:29 10° W 19:15:20 21° SSW 19:17:39 10° SSE
Ariane Rocket 3.0 19:12:29 10° SSE 19:17:29 71° ENE 19:22:33 10° N
Cosmos 1833 Rocket 4.0 19:15:33 10° N 19:20:17 26° NE 19:24:59 10° ESE
SL-4 R/B 3.7 19:17:15 10° WNW 19:21:03 29° SW 19:25:02 10° SSE
Resurs 1-3 3.6 19:17:25 10° SSE 19:21:46 69° ENE 19:26:08 10° N
Cosmos 1500 Rocket 4.3 19:17:32 10° NNW 19:21:51 55° W 19:26:04 10° S
Cosmos 1745 Rocket 4.0 19:16:51 10° N 19:23:04 74° E 19:29:11 10° SSE
Cosmos 1709 Rocket 4.4 19:19:33 10° N 19:25:24 45° ENE 19:31:13 10° SSE
BREEZE-M DEB (TANK) 3.9 19:25:27 10° WNW 19:29:43 83° SSW 19:37:55 10° ESE
Cosmos 1666 Rocket 4.0 19:26:39 10° N 19:30:53 45° ENE 19:35:00 10° SSE
USA 307 4.4 19:30:53 10° NW 19:34:43 31° NNE 19:38:34 10° E
Cosmos 1437 4.0 19:33:33 14° SE 19:34:55 19° E 19:37:04 10° NE
NOSS 3-3 (A) 4.0 19:32:37 10° SSW 19:38:07 54° ESE 19:44:20 10° NE
CZ-2C R/B 4.4 19:34:09 10° NNE 19:38:13 33° E 19:42:18 10° SSE
NOSS 3-3 (C) 4.0 19:32:43 10° SSW 19:38:14 53° ESE 19:44:27 10° NE
Intercosmos 24 3.6 19:37:02 10° S 19:40:47 90° W 19:44:23 10° N
Cosmos 1354 Rocket 4.0 19:36:08 10° S 19:41:19 72° ESE 19:46:34 10° NNE
ATLAS 2AS CENTAUR R/B 4.4 19:35:51 10° NNW 19:42:04 27° NNE 19:47:55 10° E
S3M 4.1 19:36:50 10° S 19:43:14 85° W 19:49:36 10° N
USA 245 4.1 19:43:37 13° E 19:44:09 14° ENE 19:45:28 10° NNE
SJ 16-02 2.9 19:42:36 14° ESE 19:44:15 17° E 19:47:08 10° NE
Sich 1 3.2 19:40:44 10° NNW 19:45:05 75° W 19:49:26 10° S
OBJECT-B 2.9 19:43:18 10° SSW 19:46:04 26° W 19:48:52 10° NW
Meteor 1-26 Rocket 4.2 19:41:31 10° S 19:47:07 62° E 19:52:34 10° NNE
SPOT 1/Viking Rocket 4.1 19:42:56 14° SE 19:47:09 43° ENE 19:52:03 10° N
USA 308 4.2 19:44:28 10° NW 19:48:25 35° NNE 19:52:22 10° E
Cosmos 2315 Rocket 4.1 19:42:45 10° S 19:48:58 59° E 19:55:14 10° NNE
Cosmos 1500 3.8 19:50:30 10° N 19:54:01 37° ENE 19:56:07 20° SE
Terra 3.6 19:54:08 12° E 19:56:49 18° ENE 20:00:03 10° NNE
BREEZE M DEB (TANK) 3.1 19:52:06 10° WNW 19:57:28 44° N 19:59:41 11° ENE
Meteor 1-14 Rocket 4.5 19:54:11 10° N 19:59:59 58° ENE 20:04:21 17° SSE
Cosmos 2082 Rocket 3.5 19:55:21 10° N 20:00:08 28° NE 20:03:59 14° ESE
Cosmos 1151 Rocket 3.0 19:57:16 10° S 20:01:37 78° E 20:06:01 10° NNE
SPOT 3 Rocket 3.5 19:56:53 12° SSE 20:01:42 89° W 20:06:53 10° NNW
OE (NEXTSAT) 4.2 19:58:33 10° W 20:02:02 82° SSW 20:04:07 22° ESE
SPOT 5 4.1 19:59:19 17° ESE 20:02:26 30° ENE 20:06:59 10° N
X-37B 1.1 20:00:18 10° W 20:03:22 45° SSW 20:04:43 27° SE
CREW DRAGON DEMO-1 DEB 4.1 20:01:15 10° NW 20:03:39 30° NNE 20:05:17 16° ENE
Resurs 01 Rocket 1.8 20:02:14 12° S 20:06:23 70° WSW 20:10:50 10° NNW
Cosmos 2084 3.3 20:02:21 10° SW 20:06:29 85° SE 20:10:44 10° NE
COSMOS 2406 3.5 20:01:14 10° NNW 20:06:49 54° ENE 20:10:34 21° SE
USA 290 4.1 20:06:03 10° NW 20:08:48 26° WSW 20:11:31 10° SSW
Cosmos 1538 Rocket 4.4 20:10:26 10° NNW 20:15:41 52° ENE 20:18:46 23° SE
Meteor 2-6 Rocket 4.4 20:12:08 18° SSE 20:15:55 48° E 20:21:11 10° NNE
Cosmos 773 Rocket 4.0 20:13:46 10° NNW 20:19:06 83° WSW 20:22:41 21° SSE
MetOp-B 4.2 20:15:10 16° SSE 20:19:28 81° WSW 20:24:52 10° NNW
Cosmos 1271 Rocket 3.7 20:19:15 27° ESE 20:20:10 30° E 20:23:42 10° NNE
Cosmos 2278 Rocket 2.2 20:18:56 10° S 20:24:29 61° ESE 20:30:04 10° NNE
Spot 2 Rocket 3.5 20:22:06 24° SSE 20:25:07 69° ENE 20:30:09 10° N
Landsat 7 4.3 20:23:02 15° S 20:26:51 59° W 20:31:34 10° NNW
BREEZE-M DEB (TANK) 2.7 20:25:05 10° WNW 20:27:01 30° N 20:27:56 21° NE
Cosmos 1782 3.6 20:23:08 10° SSW 20:27:02 52° WNW 20:30:57 10° N
IGS 5A 4.4 20:24:31 14° S 20:27:51 45° W 20:31:51 10° NNW
USA 305 3.4 20:24:52 10° NW 20:29:04 54° NNE 20:31:23 24° E
GPS 2-04 Rocket1 4.3 20:26:20 10° SW 20:28:42 20° S 20:28:42 20° S
Cosmos 1943 Rocket 4.1 20:32:27 13° E 20:32:27 13° E 20:34:13 10° ENE
Cosmos 1515 Rocket 3.5 20:29:37 23° S 20:32:19 74° E 20:36:43 10° NNE
ERS-1 Rocket 3.2 20:30:20 28° SE 20:32:46 54° ENE 20:37:41 10° N
BREEZE-M DEB (TANK) 4.0 20:28:04 10° WNW 20:34:24 32° SW 20:35:39 24° SSW
CZ-4C R/B 3.0 20:31:11 10° NW 20:38:31 83° SW 20:43:47 26° SSE
Cosmos 1633 Rocket 4.2 20:36:08 10° NNW 20:40:15 39° W 20:43:37 14° SSW
Meteor 1-11 Rocket 4.1 20:39:23 10° N 20:45:16 54° ENE 20:47:54 31° SE
deb Kosmos-1763 3.8 20:43:44 10° NNW 20:47:18 87° ENE 20:47:57 57° SSE
ATLAS 5 CENTAUR R/B 3.6 20:42:24 10° NW 20:47:35 33° WSW 20:51:47 17° S
USA 306 3.0 20:44:10 10° NW 20:48:26 70° NNE 20:49:57 38° ESE
Cosmos 1812 3.0 20:47:18 24° SSW 20:49:28 63° W 20:53:19 10° N
Cosmos 1777 Rocket 4.5 20:46:21 10° SSW 20:51:29 61° WNW 20:56:39 10° NNE
Cosmos 1470 Rocket 4.2 20:48:14 10° NNW 20:52:36 52° W 20:55:00 25° SSW
ARIANE 5 R/B 2.8 20:52:23 33° S 20:54:12 65° W 20:58:31 10° NNW
Cosmos 1340 Rocket 4.1 20:51:35 10° NNE 20:55:03 26° ENE 20:55:28 25° E
CARTOSAT-1 3.8 20:56:42 35° S 20:58:23 64° W 21:02:41 10° NNW
Cosmos 1666 2.7 20:55:57 10° NNW 20:59:39 69° W 21:00:28 50° SSW
Meteor 2-12 Rocket 4.4 20:56:47 10° N 21:02:51 71° E 21:05:22 37° SSE
Cosmos 1833 Rocket 3.1 20:59:02 10° NNW 21:04:34 57° WSW 21:07:04 32° S
SL-24 DEB 4.3 21:05:35 48° SE 21:06:37 62° E 21:11:10 10° N
Cosmos 1933 Rocket 4.0 21:02:37 10° NNW 21:06:52 55° W 21:08:26 34° SSW
BREEZE-M R/B 3.6 21:04:45 10° WNW 21:06:59 30° N 21:07:49 24° NE
Cosmos 2154 Rocket 4.0 21:00:48 10° N 21:07:08 70° E 21:09:42 37° SSE
Cosmos 1898 Rocket 4.0 21:07:15 37° ESE 21:07:44 38° ESE 21:12:39 10° NE
Cosmos 923 Rocket 4.1 21:03:20 10° NNW 21:08:35 65° ENE 21:10:12 43° SE
Meteor 1-10 Rocket 4.2 21:05:30 25° SSW 21:08:52 80° W 21:14:34 10° N
Cosmos 1536 2.9 21:06:15 10° N 21:10:15 57° E 21:10:33 55° E
Cosmos 2184 Rocket 4.1 21:08:20 10° NNW 21:14:33 74° W 21:17:33 32° S
Cosmos 1743 3.7 21:11:06 10° N 21:14:28 33° ENE 21:14:28 33° ENE
USA 307 2.7 21:10:47 10° WNW 21:15:04 84° SW 21:15:37 67° SE
H-2A R/B 3.3 21:13:27 10° NNE 21:17:40 83° ESE 21:18:18 63° S
Cosmos 2074 Rocket 4.2 21:12:48 10° NNW 21:19:03 66° W 21:22:14 30° SSW
NOSS 3-4 (A) 3.8 21:13:39 10° NW 21:20:42 84° SW 21:24:06 37° SSE
NOSS 3-4 (C) 3.8 21:13:46 10° NW 21:20:49 84° SW 21:24:12 37° SSE
Cosmos 990 Rocket 4.0 21:20:01 50° SSE 21:21:06 61° ESE 21:26:17 10° NNE
SJ 16-02 2.2 21:19:30 19° SW 21:22:24 49° WNW 21:26:44 10° N
Nadezhda 1 Rocket 3.9 21:19:52 34° S 21:22:49 87° E 21:29:07 10° N
Cosmos 2297 4.0 21:22:45 44° SE 21:23:26 46° ESE 21:28:51 10° NE
Cosmos 1733 Rocket 4.0 21:23:47 10° N 21:27:45 34° ENE 21:27:49 34° ENE
USA 308 2.8 21:24:24 10° WNW 21:28:40 68° SW 21:28:43 68° SSW
Terra 2.1 21:33:01 46° SSW 21:34:07 58° W 21:38:50 10° NNW
ATLAS 2AS CENTAUR R/B 2.8 21:26:53 10° NW 21:34:18 76° NE 21:37:04 40° SE
Cosmos 1544 3.3 21:33:54 10° N 21:37:03 65° N 21:37:03 65° N
SPOT 5 4.0 21:38:33 30° SW 21:40:20 39° W 21:45:16 10° NNW
ERBS 4.3 21:40:06 10° NNW 21:42:47 22° NNE 21:43:15 21° NE
Cosmos 2082 Rocket 2.6 21:39:04 10° NW 21:44:31 53° WSW 21:45:50 43° SSW
Cosmos 2181 Rocket 4.2 21:44:37 44° ESE 21:45:43 49° E 21:51:36 10° NNE
Cosmos 2228 Rocket 4.1 21:45:34 32° WSW 21:46:57 42° WNW 21:51:14 10° N
Cosmos 2112 Rocket 3.9 21:41:53 10° NNW 21:47:17 89° ENE 21:48:11 63° SSE
Cosmos 44 3.5 21:45:38 10° NNW 21:51:06 76° NE 21:51:59 61° ESE
Cosmos 967 Rocket 4.3 21:49:30 49° S 21:51:13 71° ESE 21:57:28 10° NE
Cosmos 2366 rocket 4.3 21:48:31 10° N 21:54:34 53° ENE 21:55:56 45° ESE
Spot 4 4.2 21:55:19 50° E 21:55:45 51° ENE 22:00:28 10° N
Cosmos 2084 Rocket 3.8 21:54:53 10° NNW 21:59:07 57° NE 21:59:14 57° NE
Cosmos 2341 Rocket 4.0 21:56:04 10° N 22:02:31 88° W 22:04:08 54° S
Cosmos 1515 4.3 22:04:29 53° N 22:04:29 53° N 22:07:27 10° N
Cosmos 2278 Rocket 4.2 22:04:23 10° WSW 22:08:59 25° NW 22:13:38 10° N
Cosmos 1937 Rocket 3.3 22:09:31 72° SSW 22:10:04 86° WNW 22:15:17 10° NNE
Cosmos 1862 Rocket 3.7 22:10:39 66° NE 22:10:39 66° NE 22:14:29 10° NNE
Cosmos 489 Rocket 4.5 22:05:40 10° NNW 22:11:55 71° ENE 22:13:17 54° SE
SL-24 R/B - RUBIN 2 3.8 22:07:38 10° NW 22:13:03 73° WSW 22:13:07 73° SW
Cosmos 1680 Rocket 4.0 22:09:15 10° NNW 22:14:20 47° WSW 22:14:52 45° WSW
Cosmos 1943 Rocket 2.0 22:13:55 67° SSW 22:14:44 86° ESE 22:20:22 10° NNE
Cosmos 2369 Rocket 2.5 22:17:10 49° E 22:17:10 49° E 22:22:20 10° NE
Cosmos 2218 Rocket 3.9 22:10:41 10° N 22:17:00 80° E 22:18:16 59° SSE
Meteor 1-19 Rocket 3.9 22:19:24 75° S 22:19:52 85° ESE 22:25:18 10° NNE
Centaur D AC-29 4.4 21:47:06 10° WSW 22:20:03 29° SSW 22:20:13 29° SSW
Gbstr 26 Del rocket 4.1 22:14:01 10° WNW 22:21:22 76° NNE 22:23:48 40° ESE
Cosmos 1238 Rocket 3.7 22:18:22 10° NNW 22:24:30 70° W 22:25:13 63° SW
Cosmos 1607 4.5 22:26:50 43° ESE 22:26:50 43° ESE 22:32:41 10° NE
Meteor 2-9 Rocket 4.1 22:22:09 10° NNW 22:27:57 82° W 22:28:36 70° SSW
Okean 1 4.1 22:29:36 48° NW 22:29:36 48° NW 22:32:58 10° N
Okean 1-7 4.1 22:31:00 35° ENE 22:31:00 35° ENE 22:34:01 10° NNE
Cosmos 1818 3.4 22:28:34 10° NW 22:34:04 75° WSW 22:34:12 75° SW
Cosmos 1656 Rocket 4.3 22:35:34 41° E 22:35:34 41° E 22:40:10 10° NE
Nadezhda 3 Rocket 4.5 22:35:11 42° ESE 22:35:55 44° E 22:41:46 10° NNE
DNEPR-1 R/B 4.3 22:34:45 44° WSW 22:36:28 66° NW 22:41:26 10° NNE
SL-8 Rocket 4.2 22:34:06 10° NNW 22:40:19 59° W 22:41:32 50° SW
ALOS 2 2.8 22:41:06 67° NNE 22:41:06 67° NNE 22:44:59 10° N
Cosmos 2263 4.3 22:43:18 58° ESE 22:43:18 58° ESE 22:48:55 10° NNE
Meteor 2-4 Rocket 3.6 22:47:05 76° S 22:47:33 85° E 22:53:12 10° NNE
SL-08 R/B 4.3 22:51:20 10° N 22:57:35 89° W 22:58:29 68° S
BREEZE-M DEB (TANK) 3.8 22:43:50 10° WNW 22:57:42 88° SSW 22:58:40 62° ESE
Cosmos 1975 4.2 22:57:46 10° NNW 23:00:28 33° NW 23:00:28 33° NW
Cosmos 2150 Rocket 4.1 23:04:29 69° E 23:04:29 69° E 23:09:35 10° NNE
RESURS DK-1 3.1 23:00:10 10° NNW 23:03:31 50° N 23:03:31 50° N
Cosmos 372 Rocket 4.5 23:07:02 46° W 23:07:38 49° WNW 23:12:36 10° NNE
Cosmos 1461 3.8 23:07:22 48° WNW 23:07:45 49° NW 23:12:15 10° NNE
Cosmos 2242 Rocket 4.0 23:09:01 60° NNW 23:09:01 60° NNW 23:12:53 10° N
Cosmos 1833 4.2 23:02:54 10° NNW 23:08:41 75° ENE 23:09:22 66° ESE
SeaSat 1 3.2 23:04:34 10° NE 23:08:32 42° E 23:08:32 42° E
Meteor 1-12 Rocket 4.2 23:06:14 10° N 23:12:08 75° ENE 23:12:43 69° SE
Cosmos 2239 Rocket 4.5 23:06:14 10° N 23:12:34 76° E 23:13:34 63° SE
ISS -1.1 23:18:16 17° NE 23:18:16 17° NE 23:19:14 10° NE
USA 215 3.4 23:13:57 24° ESE 23:18:04 71° NNE 23:24:35 10° NW
Cosmos 468 4.4 23:13:18 10° NNW 23:18:27 79° W 23:18:27 79° W
Cosmos 494 Rocket 3.9 23:14:54 10° NNW 23:20:07 80° ENE 23:20:07 80° ENE
Cosmos 1300 Rocket 4.3 23:17:50 10° N 23:21:41 46° ENE 23:21:41 46° ENE
Okean 2 Rocket 4.0 23:20:03 10° N 23:23:56 40° ENE 23:23:56 40° ENE
ATLAS 2AS CENTAUR R/B 4.0 23:18:55 10° WNW 23:24:28 25° WSW 23:24:29 25° WSW
Nimbus 7 Rocket 4.4 23:19:51 10° N 23:25:42 71° WNW 23:26:37 61° WSW
Cosmos 1867 3.5 23:25:56 71° W 23:26:22 76° NW 23:31:52 10° NNE
Cosmos 1125 Rocket 3.4 23:26:49 84° E 23:26:49 84° E 23:31:58 10° NNE
Cosmos 44 Rocket 4.0 23:25:06 10° NNW 23:30:14 52° NE 23:31:24 43° E
ATLAS CENTAUR R/B 2.5 23:38:29 36° NNE 23:38:29 36° NNE 23:40:52 10° NNE
Cosmos 1821 Rocket 4.2 23:34:19 10° NNW 23:40:34 57° W 23:41:25 52° WSW
Cosmos 2344 4.3 23:31:21 10° NW 23:40:46 88° NE 23:51:07 19° SE
Cosmos 1934 Rocket 3.8 23:35:06 10° N 23:41:17 85° E 23:42:10 67° SSE
USA 281 4.2 23:36:59 17° ESE 23:41:33 41° NE 23:47:37 10° NNW
USA 81 4.2 23:44:51 10° N 23:50:06 62° E 23:50:37 58° ESE
Okean 3 4.3 23:50:46 45° NW 23:50:46 45° NW 23:54:15 10° N
Lacrosse 5 2.7 23:54:51 40° E 23:54:51 40° E 23:58:43 10° ENE
